Warsaw, Poland

10:52 PM CEST on September 29, 2016 (GMT +0200)
Okecie

Weather History for EPWA - April, 2014

Change the Weather History Date:

Thursday, April 17, 2014

  Actual Average Record
Temperature  
Mean Temperature 45 °F -  
Max Temperature 56 °F 53 °F 72 °F (2016)
Min Temperature 34 °F 37 °F 33 °F (1997)
Degree Days  
Heating Degree Days 20    
Moisture  
Dew Point 30 °F    
Average Humidity 54    
Maximum Humidity 81    
Minimum Humidity 25    
Precipitation  
Precipitation 0.00 in - - ()
Sea Level Pressure  
Sea Level Pressure 30.25 in    
Wind  
Wind Speed 4 mph ()    
Max Wind Speed 11 mph    
Max Gust Speed -    
Visibility 16.8 miles    
Events      
Averages and records for this station are not official NWS values.
T = Trace of Precipitation, MM = Missing Value Source: Averaged Metar Reports

Daily Weather History Graph

Daily Weather History Graph

Search for Another Location

Airport or City:

Trip Planner

Search our weather history database for the weather conditions in past years. The results will help you decide how hot, cold, wet, or windy it might be!

Date:

Astronomy

Apr. 17, 2014 Rise Set
Actual Time 5:35 AM CEST 7:37 PM CEST
Civil Twilight 4:59 AM CEST 8:13 PM CEST
Nautical Twilight 4:13 AM CEST 8:59 PM CEST
Astronomical Twilight 3:22 AM CEST 9:51 PM CEST
Moon 10:19 PM CEST (4/17) 6:41 AM CEST (4/17)
Length of Visible Light 15h 14m
Length of Day
14h 02m
Waning Gibbous, 95% of the Moon is Illuminated
Apr 17
Waning Gibbous
Apr 22
Last Quarter
Apr 29
New
May 7
First Quarter
May 14
Full

Hourly Weather History & Observations

Time (CEST) Temp. Windchill Dew Point Humidity Pressure Visibility Wind Dir Wind Speed Gust Speed Precip Events Conditions
12:00 AM 38 °F - 31 °F 68% 30.38 in 19 mi NNW 6.7 mph - -   Scattered Clouds
12:00 AM 37.4 °F 32.8 °F 30.2 °F 75% 30.36 in - North 5.8 mph - N/A   Clear
12:30 AM 35.6 °F 29.2 °F 30.2 °F 81% 30.36 in - North 8.1 mph - N/A   Clear
1:00 AM 40 °F - 30 °F 56% 30.39 in 19 mi NNE 11.2 mph - -  
1:00 AM 39.2 °F 33.0 °F 30.2 °F 70% 30.36 in - NNE 9.2 mph - N/A   Clear
1:30 AM 39.2 °F 32.5 °F 28.4 °F 65% 30.36 in - NE 10.4 mph - N/A   Clear
2:00 AM 40 °F - 28 °F 50% 30.38 in 19 mi NE 8.9 mph - -  
2:00 AM 39.2 °F 33.6 °F 28.4 °F 65% 30.36 in - NE 8.1 mph - N/A   Clear
2:30 AM 37.4 °F 32.1 °F 28.4 °F 70% 30.36 in - NNE 6.9 mph - N/A   Clear
3:00 AM 37 °F - 27 °F 57% 30.38 in 19 mi Calm Calm - -  
3:00 AM 37.4 °F - 26.6 °F 65% 30.36 in - Variable 2.3 mph - N/A   Clear
3:30 AM 35.6 °F - 28.4 °F 75% 30.36 in - Variable 2.3 mph - N/A   Clear
4:00 AM 35 °F - 28 °F 66% 30.38 in 19 mi NNW 4.5 mph - -  
4:00 AM 35.6 °F 31.7 °F 28.4 °F 75% 30.36 in - North 4.6 mph - N/A   Clear
4:30 AM 35.6 °F 31.7 °F 28.4 °F 75% 30.36 in - NNW 4.6 mph - N/A   Clear
5:00 AM 35 °F - 27 °F 63% 30.37 in 19 mi North 2.2 mph - -  
5:00 AM 33.8 °F - 26.6 °F 75% 30.33 in - Variable 2.3 mph - N/A   Clear
5:30 AM 35.6 °F 32.8 °F 28.4 °F 75% 30.33 in - North 3.5 mph - N/A   Clear
6:00 AM 34 °F - 27 °F 66% 30.38 in 19 mi Calm Calm - -   Scattered Clouds
6:00 AM 33.8 °F - 26.6 °F 75% 30.33 in - Variable 2.3 mph - N/A   Clear
6:30 AM 35.6 °F - 28.4 °F 75% 30.33 in - Variable 1.2 mph - N/A   Clear
7:00 AM 38 °F - 29 °F 61% 30.37 in 19 mi Calm Calm - -   Scattered Clouds
7:00 AM 37.4 °F - 30.2 °F 75% 30.33 in - Variable 2.3 mph - N/A   Clear
7:30 AM 39.2 °F - 30.2 °F 70% 30.33 in - Variable 2.3 mph - N/A   Clear
8:00 AM 42 °F - 30 °F 51% 30.37 in 19 mi Calm Calm - -   Scattered Clouds
8:00 AM 41.0 °F - 30.2 °F 65% 30.33 in - East 2.3 mph - N/A   Clear
8:30 AM 42.8 °F - 30.2 °F 61% 30.33 in - Variable 2.3 mph - N/A   Clear
9:00 AM 46 °F - 32 °F 46% 30.36 in 19 mi Calm Calm - -   Scattered Clouds
9:00 AM 46.4 °F - 32.0 °F 57% 30.33 in - Variable 1.2 mph - N/A   Clear
9:30 AM 48.2 °F - 33.8 °F 58% 30.33 in - Variable 1.2 mph - N/A   Clear
10:00 AM 49 °F - 34 °F 45% 30.35 in 19 mi West 2.2 mph - -   Scattered Clouds
10:00 AM 48.2 °F - 33.8 °F 58% 30.33 in 6.2 mi Variable 2.3 mph - N/A   Partly Cloudy
10:30 AM 50.0 °F - 33.8 °F 54% 30.33 in 6.2 mi Variable 2.3 mph - N/A   Partly Cloudy
11:00 AM 50 °F - 33 °F 40% 30.33 in 19 mi Calm Calm - -   Partly Cloudy
11:00 AM 50.0 °F - 32.0 °F 50% 30.30 in 6.2 mi West 4.6 mph - N/A   Scattered Clouds
11:30 AM 50.0 °F - 28.4 °F 43% 30.30 in 6.2 mi Variable 2.3 mph - N/A   Scattered Clouds
12:00 PM 52 °F - 31 °F 33% 30.30 in 19 mi SE 2.2 mph - -   Partly Cloudy
12:00 PM 51.8 °F - 30.2 °F 44% 30.30 in 6.2 mi Variable 2.3 mph - N/A   Scattered Clouds
12:30 PM 51.8 °F - 32.0 °F 47% 30.27 in - Variable 2.3 mph - N/A   Clear
1:00 PM 54 °F - 29 °F 26% 30.28 in 19 mi WSW 2.2 mph - -   Partly Cloudy
1:00 PM 51.8 °F - 32.0 °F 47% 30.27 in - Variable 2.3 mph - N/A   Clear
1:30 PM 53.6 °F - 33.8 °F 47% 30.24 in - Variable 2.3 mph - N/A   Clear
2:00 PM 54 °F - 32 °F 30% 30.25 in 19 mi NW 2.2 mph - -   Partly Cloudy
2:00 PM 53.6 °F - 28.4 °F 38% 30.24 in - NNW 5.8 mph - N/A   Clear
2:30 PM 53.6 °F - 32.0 °F 44% 30.21 in - Variable 2.3 mph - N/A   Clear
3:00 PM 53 °F - 31 °F 30% 30.22 in 19 mi NE 2.2 mph - -   Partly Cloudy
3:00 PM 53.6 °F - 30.2 °F 41% 30.21 in - Variable 2.3 mph - N/A   Clear
3:30 PM 51.8 °F - 26.6 °F 38% 30.18 in - Variable 1.2 mph - N/A   Clear
4:00 PM 55 °F - 29 °F 25% 30.19 in 19 mi Calm Calm - -   Partly Cloudy
4:00 PM 55.4 °F - 28.4 °F 36% 30.18 in - Variable 2.3 mph - N/A   Clear
4:30 PM 55.4 °F - 30.2 °F 38% 30.15 in - Variable 2.3 mph - N/A   Clear
5:00 PM 56 °F - 31 °F 26% 30.16 in 19 mi Calm Calm - -   Scattered Clouds
5:00 PM 55.4 °F - 30.2 °F 38% 30.15 in - Variable 2.3 mph - N/A   Clear
5:30 PM 53.6 °F - 28.4 °F 38% 30.12 in - SSW 5.8 mph - N/A   Clear
6:00 PM 54 °F - 31 °F 28% 30.14 in 19 mi SSE 2.2 mph - -   Scattered Clouds
6:00 PM 53.6 °F - 30.2 °F 41% 30.12 in - South 5.8 mph - N/A   Clear
6:30 PM 53.6 °F - 28.4 °F 38% 30.12 in - SSW 5.8 mph - N/A   Clear
7:00 PM 53 °F - 29 °F 27% 30.12 in 19 mi SSE 2.2 mph - -   Scattered Clouds
7:00 PM 51.8 °F - 28.4 °F 41% 30.09 in - South 5.8 mph - N/A   Clear
7:30 PM 50.0 °F - 30.2 °F 47% 30.09 in - SSE 3.5 mph - N/A   Clear
8:00 PM 49 °F - 31 °F 38% 30.11 in 19 mi SSE 2.2 mph - -   Scattered Clouds
8:00 PM 48.2 °F - 30.2 °F 50% 30.09 in - South 4.6 mph - N/A   Clear
8:30 PM 46.4 °F - 30.2 °F 53% 30.09 in - Variable 2.3 mph - N/A   Clear
9:00 PM 46 °F - 32 °F 45% 30.09 in 19 mi SE 2.2 mph - -   Scattered Clouds
9:00 PM 44.6 °F - 30.2 °F 57% 30.06 in - Variable 2.3 mph - N/A   Clear
9:30 PM 42.8 °F - 32.0 °F 66% 30.06 in - SE 2.3 mph - N/A   Clear
10:00 PM 43 °F - 32 °F 54% 30.07 in 19 mi Calm Calm - -   Clear
10:00 PM 42.8 °F - 32.0 °F 66% 30.04 in - SE 2.3 mph - N/A   Clear
10:30 PM 42.8 °F 40.1 °F 30.2 °F 61% 30.04 in - SE 4.6 mph - N/A   Clear
11:00 PM 41 °F - 31 °F 59% 30.06 in 19 mi SSE 2.2 mph - -   Scattered Clouds
11:00 PM 39.2 °F - 30.2 °F 70% 30.04 in - SSE 2.3 mph - N/A   Clear
11:30 PM 39.2 °F - 32.0 °F 75% 30.04 in - SSE 2.3 mph - N/A   Clear